SUR4140 SAWC-SAEZ

Flight info

Callsign SUR4140
Flight time 2h 40m
Altitude 35000
Route BOKUK UW48 CRV UP664 TRE UT693 BCA UW22 VALOS
Aircraft B738/M-V/N

Departure

Time 2026-04-14 10:36
Airport El Calafate - Commander Armando Tola International Airport (SAWC)

Arrival

Time 2026-04-14 13:17
Airport Ezeiza International Airport - Ministro Pistarini (SAEZ)
Time Latitude Longitude Altitude Speed Heading
2026-04-14 10:26 -50.28330 -72.05459 640 ft 0 kts 175°
2026-04-14 10:28 -50.28319 -72.05460 642 ft 2 kts 175°
2026-04-14 10:28 -50.28302 -72.05462 642 ft 2 kts 175°
2026-04-14 10:28 -50.28286 -72.05465 642 ft 2 kts 175°
2026-04-14 10:28 -50.28272 -72.05474 641 ft 2 kts 118°
2026-04-14 10:29 -50.28269 -72.05495 641 ft 0 kts 84°
2026-04-14 10:31 -50.28268 -72.05479 640 ft 6 kts 84°
2026-04-14 10:32 -50.28250 -72.05392 642 ft 6 kts 39°
2026-04-14 10:32 -50.28218 -72.05397 640 ft 10 kts 353°
2026-04-14 10:32 -50.28105 -72.05418 641 ft 20 kts 354°
2026-04-14 10:32 -50.28019 -72.05293 642 ft 19 kts 83°
2026-04-14 10:33 -50.28005 -72.05086 642 ft 19 kts 84°
2026-04-14 10:33 -50.27991 -72.04886 643 ft 18 kts 84°
2026-04-14 10:33 -50.27980 -72.04693 645 ft 18 kts 85°
2026-04-14 10:33 -50.27968 -72.04469 642 ft 24 kts 85°
2026-04-14 10:34 -50.27939 -72.03960 639 ft 23 kts 85°
2026-04-14 10:34 -50.27941 -72.03737 642 ft 18 kts 110°
2026-04-14 10:34 -50.27948 -72.03619 642 ft 5 kts 25°
2026-04-14 10:35 -50.27925 -72.03652 641 ft 5 kts 288°
2026-04-14 10:35 -50.27926 -72.03705 641 ft 5 kts 265°
2026-04-14 10:35 -50.27940 -72.03948 639 ft 62 kts 265°
2026-04-14 10:35 -50.28008 -72.05124 642 ft 152 kts 265°
2026-04-14 10:36 -50.28128 -72.07105 883 ft 201 kts 265°
2026-04-14 10:36 -50.28258 -72.09380 1588 ft 220 kts 265°
2026-04-14 10:36 -50.28398 -72.11825 2407 ft 230 kts 265°
2026-04-14 10:36 -50.28543 -72.14345 3320 ft 235 kts 265°
2026-04-14 10:37 -50.28702 -72.16919 4066 ft 240 kts 264°
2026-04-14 10:37 -50.28864 -72.19566 4665 ft 254 kts 264°
2026-04-14 10:37 -50.29031 -72.22396 5319 ft 267 kts 265°
2026-04-14 10:37 -50.29199 -72.25299 6278 ft 269 kts 265°
2026-04-14 10:38 -50.29368 -72.28233 7237 ft 273 kts 265°
2026-04-14 10:38 -50.29501 -72.31209 8139 ft 277 kts 273°
2026-04-14 10:38 -50.28963 -72.34096 9023 ft 281 kts 301°
2026-04-14 10:38 -50.27603 -72.36284 9892 ft 285 kts 329°
2026-04-14 10:39 -50.25709 -72.37292 10549 ft 299 kts 355°
2026-04-14 10:39 -50.23576 -72.36773 10756 ft 327 kts 24°
2026-04-14 10:39 -50.21632 -72.34693 10992 ft 352 kts 41°
2026-04-14 10:39 -50.19807 -72.32027 11529 ft 364 kts 44°
2026-04-14 10:40 -50.17986 -72.29237 12291 ft 369 kts 44°
2026-04-14 10:40 -50.16117 -72.26477 13101 ft 372 kts 42°
2026-04-14 10:40 -50.14161 -72.23810 13838 ft 376 kts 40°
2026-04-14 10:40 -50.12154 -72.21140 14538 ft 382 kts 40°
2026-04-14 10:41 -50.10134 -72.18408 15230 ft 387 kts 41°
2026-04-14 10:41 -50.08101 -72.15639 15958 ft 390 kts 41°
2026-04-14 10:41 -50.06058 -72.12854 16677 ft 392 kts 41°
2026-04-14 10:41 -50.03995 -72.10047 17371 ft 395 kts 41°
2026-04-14 10:42 -50.01911 -72.07217 17996 ft 400 kts 41°
2026-04-14 10:42 -49.99811 -72.04375 18566 ft 405 kts 41°
2026-04-14 10:42 -49.97673 -72.01486 19173 ft 409 kts 41°
2026-04-14 10:42 -49.95513 -71.98574 19782 ft 412 kts 41°
2026-04-14 10:43 -49.93367 -71.95685 20351 ft 415 kts 40°
2026-04-14 10:43 -49.91174 -71.92738 20914 ft 419 kts 40°
2026-04-14 10:43 -49.88969 -71.89777 21451 ft 422 kts 40°
2026-04-14 10:43 -49.86737 -71.86784 21967 ft 425 kts 40°
2026-04-14 10:44 -49.84491 -71.83777 22462 ft 429 kts 40°
2026-04-14 10:44 -49.82262 -71.80794 22938 ft 432 kts 40°
2026-04-14 10:44 -49.79980 -71.77746 23357 ft 436 kts 40°
2026-04-14 10:44 -49.77670 -71.74664 23818 ft 439 kts 40°
2026-04-14 10:45 -49.75350 -71.71572 24308 ft 440 kts 40°
2026-04-14 10:45 -49.73031 -71.68486 24748 ft 444 kts 40°
2026-04-14 10:45 -49.70681 -71.65362 25149 ft 447 kts 40°
2026-04-14 10:45 -49.68321 -71.62230 25552 ft 450 kts 40°
2026-04-14 10:46 -49.65940 -71.59073 25955 ft 452 kts 40°
2026-04-14 10:46 -49.63647 -71.56038 26333 ft 454 kts 40°
2026-04-14 10:46 -49.61241 -71.52857 26696 ft 457 kts 40°
2026-04-14 10:46 -49.58818 -71.49657 27037 ft 459 kts 40°
2026-04-14 10:47 -49.56390 -71.46455 27400 ft 461 kts 40°
2026-04-14 10:47 -49.53949 -71.43241 27719 ft 464 kts 40°
2026-04-14 10:47 -49.51486 -71.40003 28033 ft 466 kts 40°
2026-04-14 10:47 -49.49009 -71.36751 28333 ft 469 kts 40°
2026-04-14 10:48 -49.46527 -71.33495 28647 ft 471 kts 40°
2026-04-14 10:48 -49.44028 -71.30222 29042 ft 470 kts 40°
2026-04-14 10:48 -49.41549 -71.26981 29523 ft 468 kts 40°
2026-04-14 10:48 -49.39074 -71.23749 30022 ft 465 kts 40°
2026-04-14 10:49 -49.36614 -71.20541 30399 ft 465 kts 40°
2026-04-14 10:49 -49.34142 -71.17322 30694 ft 467 kts 40°
2026-04-14 10:49 -49.31658 -71.14091 31005 ft 468 kts 40°
2026-04-14 10:49 -49.29185 -71.10878 31435 ft 466 kts 40°
2026-04-14 10:50 -49.26718 -71.07679 31907 ft 462 kts 40°
2026-04-14 10:50 -49.24268 -71.04506 32316 ft 461 kts 40°
2026-04-14 10:50 -49.21825 -71.01345 32631 ft 461 kts 40°
2026-04-14 10:50 -49.19369 -70.98172 32956 ft 461 kts 40°
2026-04-14 10:51 -49.16928 -70.95023 33307 ft 460 kts 40°
2026-04-14 10:51 -49.14479 -70.91867 33646 ft 459 kts 40°
2026-04-14 10:51 -49.12039 -70.88728 33951 ft 459 kts 40°
2026-04-14 10:51 -49.09592 -70.85583 34222 ft 460 kts 40°
2026-04-14 10:52 -49.07137 -70.82434 34470 ft 461 kts 40°
2026-04-14 10:52 -49.04686 -70.79292 34756 ft 461 kts 40°
2026-04-14 10:52 -49.02231 -70.76149 35018 ft 461 kts 40°
2026-04-14 10:53 -48.97288 -70.69836 35002 ft 464 kts 40°
2026-04-14 10:53 -48.92431 -70.63648 34991 ft 458 kts 40°
2026-04-14 10:54 -48.87547 -70.57444 35010 ft 458 kts 39°
2026-04-14 10:54 -48.82657 -70.51247 35005 ft 457 kts 39°
2026-04-14 10:55 -48.77771 -70.45071 35007 ft 457 kts 39°
2026-04-14 10:55 -48.72883 -70.38910 34996 ft 457 kts 39°
2026-04-14 10:56 -48.67996 -70.32765 34996 ft 457 kts 39°
2026-04-14 10:56 -48.63130 -70.26662 34996 ft 457 kts 39°
2026-04-14 10:57 -48.58202 -70.20498 35004 ft 457 kts 39°
2026-04-14 10:57 -48.53298 -70.14378 34996 ft 458 kts 39°
2026-04-14 10:58 -48.48384 -70.08261 35007 ft 459 kts 39°
2026-04-14 10:58 -48.43455 -70.02232 34996 ft 459 kts 37°
2026-04-14 10:59 -48.38260 -69.96641 35005 ft 460 kts 34°
2026-04-14 10:59 -48.32987 -69.91204 35002 ft 460 kts 34°
2026-04-14 11:00 -48.27713 -69.85729 35005 ft 460 kts 34°
2026-04-14 11:00 -48.22471 -69.80240 35006 ft 460 kts 34°
2026-04-14 11:01 -48.17219 -69.74731 35004 ft 460 kts 34°
2026-04-14 11:01 -48.11973 -69.69241 34999 ft 460 kts 34°
2026-04-14 11:02 -48.06725 -69.63766 35005 ft 460 kts 34°
2026-04-14 11:02 -48.01478 -69.58308 34995 ft 460 kts 34°
2026-04-14 11:03 -47.96222 -69.52853 35005 ft 460 kts 34°
2026-04-14 11:03 -47.90955 -69.47402 35001 ft 460 kts 34°
2026-04-14 11:04 -47.85697 -69.41974 34997 ft 460 kts 34°
2026-04-14 11:04 -47.80441 -69.36561 35004 ft 460 kts 34°
2026-04-14 11:05 -47.75182 -69.31159 34996 ft 460 kts 34°
2026-04-14 11:05 -47.69917 -69.25763 35003 ft 459 kts 34°
2026-04-14 11:06 -47.64656 -69.20386 34996 ft 459 kts 34°
2026-04-14 11:06 -47.60276 -69.15920 35003 ft 459 kts 34°
2026-04-14 11:07 -47.54127 -69.09665 35001 ft 459 kts 34°
2026-04-14 11:07 -47.49751 -69.05224 34999 ft 459 kts 34°
2026-04-14 11:08 -47.44479 -68.99887 35006 ft 459 kts 34°
2026-04-14 11:08 -47.39200 -68.94555 34999 ft 460 kts 34°
2026-04-14 11:09 -47.33915 -68.89231 35005 ft 460 kts 34°
2026-04-14 11:09 -47.28623 -68.83913 34994 ft 461 kts 34°
2026-04-14 11:10 -47.20719 -68.75994 34998 ft 460 kts 34°
2026-04-14 11:10 -47.15429 -68.70710 34993 ft 460 kts 34°
2026-04-14 11:11 -47.10141 -68.65441 34997 ft 459 kts 34°
2026-04-14 11:11 -47.04864 -68.60196 35000 ft 458 kts 34°
2026-04-14 11:12 -46.99676 -68.55052 35007 ft 457 kts 34°
2026-04-14 11:12 -46.94401 -68.49834 35005 ft 456 kts 34°
2026-04-14 11:13 -46.89149 -68.44652 34998 ft 455 kts 34°
2026-04-14 11:13 -46.83903 -68.39487 35006 ft 455 kts 34°
2026-04-14 11:14 -46.78659 -68.34337 35001 ft 454 kts 33°
2026-04-14 11:14 -46.73419 -68.29204 35000 ft 454 kts 33°
2026-04-14 11:15 -46.68172 -68.24075 35004 ft 454 kts 33°
2026-04-14 11:15 -46.62926 -68.18960 35008 ft 454 kts 33°
2026-04-14 11:16 -46.57668 -68.13846 34996 ft 455 kts 33°
2026-04-14 11:16 -46.52405 -68.08738 35005 ft 455 kts 33°
2026-04-14 11:17 -46.47127 -68.03628 34997 ft 456 kts 33°
2026-04-14 11:17 -46.41847 -67.98528 34999 ft 457 kts 33°
2026-04-14 11:18 -46.36550 -67.93423 35008 ft 457 kts 33°
2026-04-14 11:18 -46.31289 -67.88366 35006 ft 457 kts 33°
2026-04-14 11:19 -46.25966 -67.83261 34998 ft 457 kts 33°
2026-04-14 11:19 -46.20699 -67.78222 35000 ft 457 kts 33°
2026-04-14 11:20 -46.15624 -67.73377 35005 ft 456 kts 33°
2026-04-14 11:20 -46.10328 -67.68333 35010 ft 456 kts 33°
2026-04-14 11:21 -46.05082 -67.63348 34995 ft 455 kts 33°
2026-04-14 11:21 -45.99794 -67.58335 35007 ft 455 kts 33°
2026-04-14 11:22 -45.94514 -67.53340 35005 ft 454 kts 33°
2026-04-14 11:22 -45.89226 -67.48350 35000 ft 454 kts 33°
2026-04-14 11:23 -45.83951 -67.43381 35000 ft 454 kts 33°
2026-04-14 11:23 -45.78687 -67.38435 35000 ft 453 kts 33°
2026-04-14 11:24 -45.73367 -67.33596 34997 ft 453 kts 31°
2026-04-14 11:24 -45.67962 -67.28956 35002 ft 453 kts 31°
2026-04-14 11:25 -45.62551 -67.24329 35006 ft 453 kts 31°
2026-04-14 11:25 -45.57150 -67.19680 35000 ft 453 kts 31°
2026-04-14 11:26 -45.51753 -67.15025 35008 ft 453 kts 31°
2026-04-14 11:26 -45.46360 -67.10383 35002 ft 454 kts 31°
2026-04-14 11:27 -45.40956 -67.05744 35007 ft 454 kts 31°
2026-04-14 11:27 -45.35538 -67.01103 34996 ft 454 kts 31°
2026-04-14 11:28 -45.30125 -66.96477 35003 ft 454 kts 31°
2026-04-14 11:28 -45.24708 -66.91859 35000 ft 454 kts 31°
2026-04-14 11:29 -45.19287 -66.87248 34998 ft 455 kts 31°
2026-04-14 11:29 -45.13863 -66.82643 35009 ft 455 kts 31°
2026-04-14 11:30 -45.08427 -66.78039 35002 ft 455 kts 31°
2026-04-14 11:30 -45.02996 -66.73448 34998 ft 455 kts 31°
2026-04-14 11:31 -44.97553 -66.68858 35001 ft 455 kts 31°
2026-04-14 11:31 -44.92114 -66.64287 35009 ft 455 kts 30°
2026-04-14 11:32 -44.86697 -66.59742 34997 ft 455 kts 30°
2026-04-14 11:32 -44.81215 -66.55151 34998 ft 456 kts 30°
2026-04-14 11:33 -44.75794 -66.50620 34995 ft 456 kts 30°
2026-04-14 11:34 -44.67603 -66.43793 35009 ft 456 kts 30°
2026-04-14 11:34 -44.62145 -66.39256 34999 ft 457 kts 30°
2026-04-14 11:35 -44.56664 -66.34711 34998 ft 457 kts 30°
2026-04-14 11:35 -44.51188 -66.30180 34996 ft 457 kts 30°
2026-04-14 11:36 -44.45709 -66.25656 34996 ft 457 kts 30°
2026-04-14 11:36 -44.40221 -66.21134 35000 ft 457 kts 30°
2026-04-14 11:37 -44.34737 -66.16626 35006 ft 457 kts 30°
2026-04-14 11:37 -44.29256 -66.12130 35007 ft 457 kts 30°
2026-04-14 11:38 -44.23764 -66.07635 34996 ft 457 kts 30°
2026-04-14 11:38 -44.18281 -66.03157 35005 ft 457 kts 30°
2026-04-14 11:39 -44.12802 -65.98691 35007 ft 457 kts 30°
2026-04-14 11:39 -44.07313 -65.94227 35005 ft 456 kts 30°
2026-04-14 11:40 -44.01835 -65.89780 34996 ft 456 kts 30°
2026-04-14 11:40 -43.96464 -65.85434 34996 ft 456 kts 30°
2026-04-14 11:41 -43.90985 -65.81014 34996 ft 456 kts 30°
2026-04-14 11:41 -43.85500 -65.76596 35009 ft 456 kts 30°
2026-04-14 11:42 -43.80022 -65.72192 35000 ft 455 kts 30°
2026-04-14 11:42 -43.74536 -65.67791 35000 ft 455 kts 30°
2026-04-14 11:43 -43.69056 -65.63403 34997 ft 455 kts 30°
2026-04-14 11:43 -43.63574 -65.59024 35006 ft 455 kts 30°
2026-04-14 11:44 -43.58091 -65.54652 34999 ft 455 kts 30°
2026-04-14 11:44 -43.52597 -65.50282 34998 ft 455 kts 30°
2026-04-14 11:45 -43.47153 -65.45960 34996 ft 455 kts 30°
2026-04-14 11:45 -43.41656 -65.41605 35004 ft 455 kts 30°
2026-04-14 11:46 -43.36166 -65.37265 35005 ft 455 kts 30°
2026-04-14 11:46 -43.30666 -65.32926 34998 ft 455 kts 30°
2026-04-14 11:47 -43.25215 -65.28633 34996 ft 455 kts 30°
2026-04-14 11:47 -43.19726 -65.24324 34996 ft 454 kts 29°
2026-04-14 11:48 -43.14184 -65.20176 35008 ft 454 kts 28°
2026-04-14 11:48 -43.08603 -65.16102 35009 ft 454 kts 28°
2026-04-14 11:49 -43.03036 -65.12028 35001 ft 454 kts 28°
2026-04-14 11:49 -42.97472 -65.07943 35002 ft 454 kts 28°
2026-04-14 11:50 -42.91907 -65.03858 35003 ft 454 kts 28°
2026-04-14 11:50 -42.86346 -64.99786 35002 ft 454 kts 28°
2026-04-14 11:51 -42.77999 -64.93690 35006 ft 454 kts 28°
2026-04-14 11:51 -42.72431 -64.89634 34996 ft 454 kts 28°
2026-04-14 11:52 -42.66852 -64.85579 35000 ft 454 kts 28°
2026-04-14 11:52 -42.62221 -64.82219 34996 ft 454 kts 28°
2026-04-14 11:53 -42.55710 -64.77504 35004 ft 454 kts 28°
2026-04-14 11:53 -42.50163 -64.73497 35003 ft 454 kts 28°
2026-04-14 11:54 -42.45489 -64.70125 35005 ft 454 kts 28°
2026-04-14 11:54 -42.39912 -64.66109 35002 ft 454 kts 28°
2026-04-14 11:55 -42.34309 -64.62137 34999 ft 454 kts 27°
2026-04-14 11:55 -42.28673 -64.58274 34996 ft 454 kts 26°
2026-04-14 11:56 -42.23030 -64.54425 35000 ft 454 kts 26°
2026-04-14 11:56 -42.17393 -64.50570 34995 ft 454 kts 26°
2026-04-14 11:57 -42.11794 -64.46738 35005 ft 454 kts 26°
2026-04-14 11:57 -42.06160 -64.42889 35005 ft 454 kts 26°
2026-04-14 11:58 -42.00520 -64.39044 34998 ft 454 kts 26°
2026-04-14 11:58 -41.94880 -64.35206 35009 ft 454 kts 26°
2026-04-14 11:59 -41.89250 -64.31383 35007 ft 454 kts 26°
2026-04-14 11:59 -41.83607 -64.27559 35007 ft 454 kts 26°
2026-04-14 12:00 -41.77973 -64.23749 34998 ft 454 kts 26°
2026-04-14 12:00 -41.72336 -64.19944 34996 ft 454 kts 26°
2026-04-14 12:01 -41.66702 -64.16149 35002 ft 454 kts 26°
2026-04-14 12:01 -41.61056 -64.12353 34998 ft 454 kts 26°
2026-04-14 12:02 -41.55424 -64.08573 34996 ft 454 kts 26°
2026-04-14 12:02 -41.49813 -64.04816 35009 ft 454 kts 26°
2026-04-14 12:03 -41.44172 -64.01046 35007 ft 454 kts 26°
2026-04-14 12:03 -41.38529 -63.97281 34996 ft 454 kts 26°
2026-04-14 12:04 -41.32918 -63.93546 34997 ft 454 kts 26°
2026-04-14 12:04 -41.27266 -63.89790 35008 ft 454 kts 26°
2026-04-14 12:05 -41.21618 -63.86044 34998 ft 454 kts 26°
2026-04-14 12:05 -41.15962 -63.82300 34999 ft 454 kts 26°
2026-04-14 12:06 -41.10309 -63.78565 34996 ft 454 kts 26°
2026-04-14 12:06 -41.04656 -63.74837 35007 ft 454 kts 26°
2026-04-14 12:07 -40.98995 -63.71111 35000 ft 454 kts 26°
2026-04-14 12:07 -40.93333 -63.67391 34999 ft 454 kts 26°
2026-04-14 12:08 -40.87705 -63.63599 35004 ft 454 kts 28°
2026-04-14 12:08 -40.82163 -63.59570 35007 ft 454 kts 29°
2026-04-14 12:09 -40.76673 -63.55544 35000 ft 454 kts 28°
2026-04-14 12:09 -40.71133 -63.51529 35008 ft 454 kts 28°
2026-04-14 12:10 -40.65581 -63.47539 35002 ft 454 kts 28°
2026-04-14 12:10 -40.60027 -63.43563 35003 ft 454 kts 28°
2026-04-14 12:11 -40.54471 -63.39591 35000 ft 454 kts 28°
2026-04-14 12:11 -40.48917 -63.35627 34997 ft 454 kts 28°
2026-04-14 12:12 -40.43360 -63.31668 34998 ft 454 kts 28°
2026-04-14 12:12 -40.37804 -63.27717 35005 ft 454 kts 28°
2026-04-14 12:13 -40.32247 -63.23773 35005 ft 454 kts 28°
2026-04-14 12:13 -40.26692 -63.19838 35003 ft 454 kts 28°
2026-04-14 12:14 -40.21133 -63.15907 35007 ft 454 kts 28°
2026-04-14 12:14 -40.15573 -63.11983 34998 ft 454 kts 28°
2026-04-14 12:15 -40.10011 -63.08065 34999 ft 454 kts 28°
2026-04-14 12:15 -40.04452 -63.04157 34998 ft 454 kts 28°
2026-04-14 12:16 -39.98926 -63.00278 34997 ft 454 kts 28°
2026-04-14 12:16 -39.93357 -62.96377 35001 ft 454 kts 28°
2026-04-14 12:17 -39.87797 -62.92489 35001 ft 454 kts 28°
2026-04-14 12:17 -39.82233 -62.88605 35003 ft 454 kts 28°
2026-04-14 12:18 -39.76663 -62.84725 35005 ft 454 kts 28°
2026-04-14 12:18 -39.71096 -62.80854 34999 ft 454 kts 28°
2026-04-14 12:19 -39.65525 -62.76987 35001 ft 454 kts 28°
2026-04-14 12:19 -39.59957 -62.73129 35004 ft 454 kts 28°
2026-04-14 12:20 -39.54389 -62.69276 35005 ft 454 kts 28°
2026-04-14 12:20 -39.48813 -62.65445 35003 ft 454 kts 27°
2026-04-14 12:21 -39.43182 -62.61755 35000 ft 454 kts 26°
2026-04-14 12:21 -39.37525 -62.58102 35005 ft 454 kts 26°
2026-04-14 12:22 -39.31914 -62.54466 35001 ft 454 kts 26°
2026-04-14 12:22 -39.26276 -62.50803 34997 ft 454 kts 26°
2026-04-14 12:23 -39.20639 -62.47143 34997 ft 454 kts 26°
2026-04-14 12:23 -39.14999 -62.43488 34996 ft 454 kts 26°
2026-04-14 12:24 -39.09563 -62.39972 35002 ft 454 kts 26°
2026-04-14 12:24 -39.03925 -62.36332 34997 ft 454 kts 26°
2026-04-14 12:25 -38.98273 -62.32690 35001 ft 454 kts 26°
2026-04-14 12:25 -38.92630 -62.29060 35007 ft 454 kts 26°
2026-04-14 12:26 -38.86986 -62.25435 34997 ft 454 kts 26°
2026-04-14 12:26 -38.81337 -62.21814 35003 ft 454 kts 26°
2026-04-14 12:27 -38.75686 -62.18196 35002 ft 454 kts 26°
2026-04-14 12:27 -38.70097 -62.14439 34995 ft 454 kts 31°
2026-04-14 12:28 -38.64835 -62.09978 35001 ft 454 kts 36°
2026-04-14 12:28 -38.59796 -62.05083 34997 ft 454 kts 37°
2026-04-14 12:29 -38.54743 -62.00231 34997 ft 455 kts 36°
2026-04-14 12:29 -38.49610 -61.95515 35001 ft 455 kts 35°
2026-04-14 12:30 -38.44444 -61.90859 35002 ft 455 kts 35°
2026-04-14 12:30 -38.39262 -61.86204 35008 ft 455 kts 35°
2026-04-14 12:31 -38.34086 -61.81554 34998 ft 455 kts 35°
2026-04-14 12:31 -38.28909 -61.76905 34996 ft 456 kts 35°
2026-04-14 12:32 -38.23727 -61.72260 34999 ft 456 kts 35°
2026-04-14 12:32 -38.18533 -61.67613 35009 ft 456 kts 35°
2026-04-14 12:33 -38.13346 -61.62980 35000 ft 456 kts 35°
2026-04-14 12:33 -38.08145 -61.58342 35000 ft 457 kts 35°
2026-04-14 12:34 -38.02948 -61.53716 34997 ft 457 kts 35°
2026-04-14 12:34 -37.97745 -61.49093 34999 ft 457 kts 35°
2026-04-14 12:35 -37.92530 -61.44472 35002 ft 457 kts 34°
2026-04-14 12:35 -37.87323 -61.39869 35006 ft 457 kts 34°
2026-04-14 12:36 -37.82117 -61.35273 35002 ft 456 kts 34°
2026-04-14 12:36 -37.76912 -61.30684 34997 ft 456 kts 34°
2026-04-14 12:37 -37.71695 -61.26093 35005 ft 456 kts 34°
2026-04-14 12:37 -37.66528 -61.21554 35006 ft 455 kts 34°
2026-04-14 12:38 -37.58731 -61.14718 35004 ft 455 kts 34°
2026-04-14 12:39 -37.53532 -61.10170 34997 ft 455 kts 34°
2026-04-14 12:39 -37.48324 -61.05622 34998 ft 455 kts 34°
2026-04-14 12:40 -37.43123 -61.01089 34999 ft 455 kts 34°
2026-04-14 12:40 -37.37918 -60.96558 35000 ft 455 kts 34°
2026-04-14 12:41 -37.32715 -60.92038 35008 ft 455 kts 34°
2026-04-14 12:41 -37.27504 -60.87519 34999 ft 455 kts 34°
2026-04-14 12:42 -37.23147 -60.83747 34999 ft 455 kts 34°
2026-04-14 12:42 -37.17973 -60.79273 34998 ft 455 kts 34°
2026-04-14 12:43 -37.12752 -60.74767 35004 ft 455 kts 34°
2026-04-14 12:43 -37.07539 -60.70275 35002 ft 455 kts 34°
2026-04-14 12:44 -37.02327 -60.65792 34998 ft 455 kts 34°
2026-04-14 12:44 -36.97100 -60.61304 35007 ft 455 kts 34°
2026-04-14 12:45 -36.89240 -60.54568 35001 ft 455 kts 34°
2026-04-14 12:45 -36.84046 -60.50126 35000 ft 455 kts 34°
2026-04-14 12:46 -36.78822 -60.45665 34999 ft 455 kts 34°
2026-04-14 12:46 -36.73595 -60.41210 35008 ft 455 kts 34°
2026-04-14 12:47 -36.68354 -60.36754 34997 ft 455 kts 34°
2026-04-14 12:47 -36.63124 -60.32315 34998 ft 455 kts 34°
2026-04-14 12:48 -36.60507 -60.30096 34706 ft 459 kts 34°
2026-04-14 12:48 -36.57869 -60.27859 34297 ft 454 kts 34°
2026-04-14 12:48 -36.55284 -60.25669 33846 ft 448 kts 34°
2026-04-14 12:48 -36.52720 -60.23500 33406 ft 442 kts 34°
2026-04-14 12:49 -36.50219 -60.21389 32981 ft 437 kts 34°
2026-04-14 12:49 -36.47716 -60.19285 32558 ft 432 kts 34°
2026-04-14 12:49 -36.45200 -60.17177 32129 ft 428 kts 34°
2026-04-14 12:49 -36.42784 -60.15154 31719 ft 423 kts 34°
2026-04-14 12:50 -36.40315 -60.13088 31300 ft 419 kts 34°
2026-04-14 12:50 -36.35568 -60.09118 30492 ft 411 kts 34°
2026-04-14 12:50 -36.33203 -60.07142 30091 ft 407 kts 34°
2026-04-14 12:51 -36.30870 -60.05193 29691 ft 403 kts 33°
2026-04-14 12:51 -36.28581 -60.03282 29292 ft 399 kts 33°
2026-04-14 12:51 -36.26288 -60.01369 28884 ft 395 kts 33°
2026-04-14 12:51 -36.24023 -59.99481 28481 ft 391 kts 33°
2026-04-14 12:52 -36.21775 -59.97608 28082 ft 388 kts 33°
2026-04-14 12:52 -36.19531 -59.95741 27442 ft 390 kts 33°
2026-04-14 12:52 -36.17255 -59.93847 26706 ft 396 kts 33°
2026-04-14 12:52 -36.14982 -59.91958 26261 ft 392 kts 33°
2026-04-14 12:53 -36.12728 -59.90085 25854 ft 388 kts 33°
2026-04-14 12:53 -36.10498 -59.88235 25446 ft 384 kts 33°
2026-04-14 12:53 -36.08291 -59.86404 25047 ft 380 kts 33°
2026-04-14 12:53 -36.06105 -59.84592 24653 ft 376 kts 33°
2026-04-14 12:54 -36.03941 -59.82799 24262 ft 372 kts 33°
2026-04-14 12:54 -36.01798 -59.81025 23878 ft 369 kts 33°
2026-04-14 12:54 -35.99676 -59.79270 23491 ft 365 kts 33°
2026-04-14 12:54 -35.97573 -59.77532 23117 ft 362 kts 33°
2026-04-14 12:55 -35.95491 -59.75812 22739 ft 359 kts 33°
2026-04-14 12:55 -35.93424 -59.74105 22367 ft 356 kts 33°
2026-04-14 12:55 -35.91375 -59.72414 21994 ft 353 kts 33°
2026-04-14 12:55 -35.89372 -59.70762 21631 ft 350 kts 33°
2026-04-14 12:56 -35.87330 -59.69080 21261 ft 347 kts 33°
2026-04-14 12:56 -35.85359 -59.67456 20903 ft 344 kts 33°
2026-04-14 12:56 -35.83368 -59.65818 20546 ft 344 kts 33°
2026-04-14 12:56 -35.81376 -59.64179 20185 ft 344 kts 33°
2026-04-14 12:57 -35.79370 -59.62530 19831 ft 350 kts 33°
2026-04-14 12:57 -35.77325 -59.60850 19459 ft 356 kts 33°
2026-04-14 12:57 -35.75271 -59.59164 19073 ft 354 kts 33°
2026-04-14 12:57 -35.73235 -59.57492 18694 ft 350 kts 33°
2026-04-14 12:58 -35.71219 -59.55839 18322 ft 346 kts 33°
2026-04-14 12:58 -35.69229 -59.54208 17959 ft 342 kts 33°
2026-04-14 12:58 -35.67256 -59.52592 17598 ft 339 kts 33°
2026-04-14 12:58 -35.65301 -59.50992 17230 ft 336 kts 33°
2026-04-14 12:59 -35.63363 -59.49406 16888 ft 333 kts 33°
2026-04-14 12:59 -35.61443 -59.47837 16534 ft 330 kts 33°
2026-04-14 12:59 -35.59539 -59.46280 16184 ft 327 kts 33°
2026-04-14 12:59 -35.57653 -59.44740 15836 ft 325 kts 33°
2026-04-14 13:00 -35.55780 -59.43211 15494 ft 322 kts 33°
2026-04-14 13:00 -35.53922 -59.41695 15151 ft 319 kts 33°
2026-04-14 13:00 -35.52077 -59.40190 14811 ft 317 kts 33°
2026-04-14 13:00 -35.50246 -59.38698 14473 ft 315 kts 33°
2026-04-14 13:01 -35.48429 -59.37218 14129 ft 313 kts 33°
2026-04-14 13:01 -35.46622 -59.35748 13803 ft 310 kts 33°
2026-04-14 13:01 -35.44844 -59.34263 13471 ft 308 kts 35°
2026-04-14 13:01 -35.43121 -59.32705 13142 ft 306 kts 37°
2026-04-14 13:02 -35.41431 -59.31130 12817 ft 306 kts 37°
2026-04-14 13:02 -35.39733 -59.29537 12493 ft 309 kts 37°
2026-04-14 13:02 -35.38015 -59.27929 12161 ft 313 kts 37°
2026-04-14 13:02 -35.36267 -59.26300 11819 ft 317 kts 37°
2026-04-14 13:03 -35.34509 -59.24667 11470 ft 316 kts 37°
2026-04-14 13:03 -35.32764 -59.23051 11122 ft 313 kts 37°
2026-04-14 13:03 -35.31037 -59.21454 10783 ft 310 kts 37°
2026-04-14 13:03 -35.29326 -59.19876 10468 ft 306 kts 37°
2026-04-14 13:04 -35.27653 -59.18334 10339 ft 296 kts 37°
2026-04-14 13:04 -35.26032 -59.16841 10199 ft 288 kts 37°
2026-04-14 13:04 -35.24456 -59.15390 10085 ft 279 kts 37°
2026-04-14 13:04 -35.22945 -59.14001 9910 ft 273 kts 37°
2026-04-14 13:05 -35.21425 -59.12604 9635 ft 272 kts 37°
2026-04-14 13:05 -35.19897 -59.11201 9360 ft 270 kts 37°
2026-04-14 13:05 -35.18418 -59.09843 9094 ft 269 kts 37°
2026-04-14 13:05 -35.16928 -59.08475 8817 ft 268 kts 37°
2026-04-14 13:06 -35.15509 -59.07174 8547 ft 266 kts 37°
2026-04-14 13:06 -35.14031 -59.05819 8283 ft 265 kts 37°
2026-04-14 13:06 -35.12558 -59.04469 8007 ft 264 kts 37°
2026-04-14 13:06 -35.11089 -59.03123 7737 ft 264 kts 36°
2026-04-14 13:07 -35.09624 -59.01782 7460 ft 263 kts 36°
2026-04-14 13:07 -35.08165 -59.00447 7189 ft 262 kts 37°
2026-04-14 13:07 -35.06710 -58.99116 6919 ft 261 kts 36°
2026-04-14 13:07 -35.05259 -58.97789 6645 ft 260 kts 36°
2026-04-14 13:08 -35.03811 -58.96466 6366 ft 260 kts 36°
2026-04-14 13:08 -35.02368 -58.95147 6092 ft 259 kts 36°
2026-04-14 13:08 -35.00930 -58.93834 5834 ft 257 kts 36°
2026-04-14 13:08 -34.99499 -58.92527 5560 ft 256 kts 36°
2026-04-14 13:09 -34.98074 -58.91227 5299 ft 255 kts 36°
2026-04-14 13:09 -34.96659 -58.89936 5025 ft 255 kts 36°
2026-04-14 13:09 -34.95244 -58.88647 4776 ft 254 kts 36°
2026-04-14 13:09 -34.93826 -58.87355 4506 ft 254 kts 36°
2026-04-14 13:10 -34.92413 -58.86068 4227 ft 253 kts 36°
2026-04-14 13:10 -34.91002 -58.84784 3978 ft 254 kts 36°
2026-04-14 13:10 -34.89597 -58.83506 3810 ft 248 kts 36°
2026-04-14 13:10 -34.88257 -58.82285 3752 ft 235 kts 36°
2026-04-14 13:11 -34.86984 -58.81127 3660 ft 221 kts 36°
2026-04-14 13:11 -34.85789 -58.80040 3557 ft 207 kts 36°
2026-04-14 13:11 -34.84669 -58.79022 3467 ft 195 kts 36°
2026-04-14 13:11 -34.83595 -58.78047 3181 ft 193 kts 36°
2026-04-14 13:12 -34.82539 -58.77090 2974 ft 186 kts 36°
2026-04-14 13:12 -34.81555 -58.76197 2755 ft 169 kts 36°
2026-04-14 13:12 -34.80612 -58.75342 2570 ft 169 kts 36°
2026-04-14 13:12 -34.79666 -58.74484 2373 ft 169 kts 37°
2026-04-14 13:13 -34.78972 -58.73365 2234 ft 170 kts 71°
2026-04-14 13:13 -34.78915 -58.71935 2212 ft 169 kts 104°
2026-04-14 13:13 -34.79220 -58.70527 2199 ft 174 kts 104°
2026-04-14 13:13 -34.79485 -58.69114 2211 ft 172 kts 102°
2026-04-14 13:14 -34.79729 -58.67675 2015 ft 174 kts 102°
2026-04-14 13:14 -34.79969 -58.66266 1789 ft 165 kts 102°
2026-04-14 13:14 -34.80201 -58.64928 1646 ft 159 kts 102°
2026-04-14 13:14 -34.80432 -58.63614 1407 ft 158 kts 102°
2026-04-14 13:15 -34.80660 -58.62328 1211 ft 155 kts 102°
2026-04-14 13:15 -34.80888 -58.61044 1013 ft 156 kts 102°
2026-04-14 13:15 -34.81117 -58.59764 804 ft 154 kts 102°
2026-04-14 13:15 -34.81344 -58.58495 610 ft 154 kts 102°
2026-04-14 13:16 -34.81573 -58.57222 420 ft 154 kts 102°
2026-04-14 13:16 -34.81801 -58.55952 215 ft 153 kts 102°
2026-04-14 13:16 -34.82024 -58.54700 91 ft 151 kts 102°
2026-04-14 13:16 -34.82222 -58.53540 72 ft 100 kts 101°
2026-04-14 13:17 -34.82287 -58.53185 71 ft 32 kts 103°
2026-04-14 13:17 -34.82320 -58.53014 74 ft 18 kts 102°
2026-04-14 13:17 -34.82279 -58.52893 74 ft 18 kts
2026-04-14 13:17 -34.82161 -58.52924 70 ft 17 kts 346°
2026-04-14 13:18 -34.82052 -58.52973 69 ft 16 kts 321°
2026-04-14 13:18 -34.82013 -58.53097 74 ft 16 kts 282°
2026-04-14 13:18 -34.81989 -58.53226 71 ft 15 kts 283°
2026-04-14 13:18 -34.81962 -58.53363 68 ft 20 kts 284°
2026-04-14 13:19 -34.81925 -58.53533 74 ft 21 kts 285°
2026-04-14 13:19 -34.81844 -58.53666 71 ft 20 kts 334°
2026-04-14 13:19 -34.81723 -58.53747 74 ft 20 kts 320°
2026-04-14 13:19 -34.81627 -58.53859 70 ft 19 kts 319°
2026-04-14 13:20 -34.81555 -58.53933 71 ft 3 kts 322°
2026-04-14 13:20 -34.81549 -58.53939 66 ft 0 kts 321°